This is the latest recevied weather packets stored in our database for station/object G4WLC-1. If no packets are shown the sender has not sent any weather packets the latest 10 day(s).
| Time | Temp. | Humidity | Pressure | Rain* | Wind** | Luminosity | Snow |
|---|---|---|---|---|---|---|---|
| 1777999983 | 13.33° C | 64% | 1013.3 hPa | 0 mm | - | - | - |
| 1777999683 | 13.33° C | 64% | 1013.3 hPa | 0 mm | - | - | - |
| 1777999383 | 13.33° C | 65% | 1013.4 hPa | 0 mm | - | - | - |
| 1777999083 | 13.33° C | 63% | 1013.4 hPa | 0 mm | - | - | - |
| 1777998783 | 13.33° C | 66% | 1013.2 hPa | 0 mm | - | - | - |
| 1777998483 | 13.33° C | 68% | 1013.2 hPa | 0 mm | - | - | - |
| 1777998184 | 13.33° C | 67% | 1013.3 hPa | 0 mm | - | - | - |
| 1777997883 | 13.33° C | 66% | 1013.2 hPa | 0 mm | - | - | - |
| 1777997583 | 13.33° C | 68% | 1013.3 hPa | 0 mm | - | - | - |
| 1777997283 | 13.33° C | 68% | 1013.3 hPa | 0 mm | - | - | - |
| 1777996983 | 12.78° C | 68% | 1013.3 hPa | 0 mm | - | - | - |
| 1777996683 | 12.78° C | 69% | 1013.3 hPa | 0 mm | - | - | - |
| 1777996383 | 12.78° C | 68% | 1013.3 hPa | 0 mm | - | - | - |
| 1777996083 | 13.33° C | 67% | 1013.3 hPa | 0 mm | - | - | - |
| 1777995784 | 13.33° C | 67% | 1013.4 hPa | 0 mm | - | - | - |
| 1777995483 | 13.33° C | 69% | 1013.4 hPa | 0 mm | - | - | - |
| 1777995183 | 13.33° C | 68% | 1013.5 hPa | 0 mm | - | - | - |
| 1777994884 | 13.33° C | 68% | 1013.4 hPa | 0 mm | - | - | - |
| 1777994583 | 13.33° C | 69% | 1013.5 hPa | 0 mm | - | - | - |
| 1777994284 | 13.33° C | 69% | 1013.6 hPa | 0 mm | - | - | - |
| 1777993984 | 13.33° C | 69% | 1013.5 hPa | 0 mm | - | - | - |
| 1777993684 | 13.33° C | 69% | 1013.7 hPa | 0 mm | - | - | - |
| 1777993384 | 13.33° C | 68% | 1013.7 hPa | 0 mm | - | - | - |
| 1777993084 | 13.89° C | 66% | 1013.7 hPa | 0 mm | - | - | - |
| 1777992784 | 14.44° C | 65% | 1013.6 hPa | 0 mm | - | - | - |
* Rain latest hour (hover to see other rain measurements)
** Current wind speed in m/s (hover to see current wind gust speed)